FW0579 Weather Reports


Display with metric or nautical units.
time (UTC)temp
F
wind
direction
speed
MPH
gust
MPH
rain 1hr
in
rain 24hr
in
rain mn
in
humidity
%
barometer
mb
20260502194536 65 276 1.0 9.0 0.00 0.00 0.00 68 1012.2
20260502193033 65 233 3.0 9.0 0.00 0.00 0.00 67 1012.2
20260502191536 67 360 2.0 9.0 0.00 0.00 0.00 65 1012.2
20260502190030 68 284 6.0 13.0 0.00 0.00 0.00 64 1012.2
20260502184531 67 250 3.0 8.0 0.00 0.00 0.00 66 1012.1
20260502181529 65 223 4.0 9.0 0.00 0.00 0.00 69 1012.3
20260502161513 59 360 0.0 3.0 0.00 0.00 0.00 81 1012.0
20260502151506 56 360 0.0 3.0 0.00 0.00 0.00 86 1012.0
20260502121548 54 281 0.0 1.0 0.00 0.00 0.00 85 1010.7
20260502114542 54 284 2.0 4.0 0.00 0.00 0.00 84 1010.7
20260502111535 54 275 0.0 0.0 0.00 0.00 0.00 84 1010.8
20260502110035 54 275 0.0 0.0 0.00 0.00 0.00 84 1010.9
20260502104542 54 276 0.0 0.0 0.00 0.00 0.00 84 1010.8
20260502103136 54 276 0.0 0.0 0.00 0.00 0.00 84 1010.9
20260502101530 54 276 0.0 0.0 0.00 0.00 0.00 83 1010.9
20260502091525 56 276 0.0 0.0 0.00 0.00 0.00 82 1011.1
20260502071510 59 275 0.0 0.0 0.00 0.00 0.00 77 1011.4
20260502070008 59 275 0.0 2.0 0.00 0.00 0.00 77 1011.5
20260502064511 59 276 0.0 3.0 0.00 0.00 0.00 77 1011.5
20260502061502 60 282 2.0 5.0 0.00 0.00 0.00 76 1011.4
20260502060001 61 360 2.0 8.0 0.00 0.00 0.00 76 1011.5
20260502054559 61 360 2.0 5.0 0.00 0.00 0.00 74 1011.5
20260502051637 63 360 3.0 5.0 0.00 0.00 0.00 71 1011.4
20260502050051 64 239 2.0 5.0 0.00 0.00 0.00 70 1011.4
20260502044552 65 266 4.0 11.0 0.00 0.00 0.00 69 1011.4
20260502043144 66 238 3.0 6.0 0.00 0.00 0.00 69 1011.3
20260502041546 67 234 3.0 6.0 0.00 0.00 0.00 67 1011.2
20260502040045 68 253 2.0 7.0 0.00 0.00 0.00 65 1010.9
20260502034547 69 250 3.0 8.0 0.00 0.00 0.00 63 1010.7
20260502033052 70 256 4.0 9.0 0.00 0.00 0.00 62 1010.5
20260502031559 71 251 4.0 9.0 0.00 0.00 0.00 60 1010.4
20260502030042 73 249 2.0 4.0 0.00 0.00 0.00 58 1010.2
20260502024541 74 360 2.0 9.0 0.00 0.00 0.00 54 1010.0
20260502023042 76 274 4.0 10.0 0.00 0.00 0.00 49 1010.0
20260502021541 78 240 4.0 9.0 0.00 0.00 0.00 47 1009.8
20260502020044 79 258 2.0 8.0 0.00 0.00 0.00 48 1009.9
20260502014541 80 263 4.0 9.0 0.00 0.00 0.00 46 1009.8
20260502013140 82 238 3.0 7.0 0.00 0.00 0.00 41 1009.7
20260502011546 82 235 4.0 9.0 0.00 0.00 0.00 39 1009.7
20260502010038 81 242 5.0 9.0 0.00 0.00 0.00 44 1009.9
20260502004538 81 230 4.0 9.0 0.00 0.00 0.00 44 1010.0
20260502003037 81 212 4.0 8.0 0.00 0.00 0.00 45 1010.0
20260502001536 82 231 5.0 12.0 0.00 0.00 0.00 45 1010.0
20260502000035 83 202 5.0 8.0 0.00 0.00 0.00 44 1010.1
20260501234547 83 214 3.0 8.0 0.00 0.00 0.00 43 1010.3
20260501233133 84 264 2.0 8.0 0.00 0.00 0.00 40 1010.4
20260501231546 84 234 4.0 10.0 0.00 0.00 0.00 40 1010.6
20260501230031 85 232 4.0 10.0 0.00 0.00 0.00 42 1010.7
20260501224529 85 296 1.0 5.0 0.00 0.00 0.00 43 1010.9
20260501223159 83 231 4.0 12.0 0.00 0.00 0.00 43 1011.3
20260501221531 84 240 3.0 9.0 0.00 0.00 0.00 42 1011.5
20260501220024 84 260 4.0 9.0 0.00 0.00 0.00 42 1011.7
20260501214533 83 271 3.0 9.0 0.00 0.00 0.00 43 1011.9
20260501213122 82 221 5.0 10.0 0.00 0.00 0.00 44 1012.0
20260501211522 82 248 2.0 7.0 0.00 0.00 0.00 45 1012.0
20260501210018 81 252 5.0 9.0 0.00 0.00 0.00 45 1012.3
20260501204516 80 230 4.0 8.0 0.00 0.00 0.00 45 1012.2
20260501203113 78 221 2.0 11.0 0.00 0.00 0.00 48 1012.4
20260501201512 77 253 5.0 11.0 0.00 0.00 0.00 50 1012.6
20260501200012 77 240 5.0 10.0 0.00 0.00 0.00 51 1012.8